Space & Earth Science
NORAD ID: 20712
Int'l Code: 1990-065A
Perigee: 322.1 km
Apogee: 33,549.4 km
Inclination: 17.6 °
Period: 590.2 minutes
Semi major axis: 23306 km
Launch date: July 25, 1990
Source: United States (US)
Two Line Element Set (TLE):
1 20712U 90065A 13164.48551999 -.00000020 00000-0 17820-3 0 6358
2 20712 017.5619 180.8951 7128275 118.1992 006.9290 02.43994951192530
Source:
NASA's NSSDC Master Catalog entry for CRRES